Year,Month,Day,Hour,Minute,Value (Times are PST for temperature in C)
2014,08,07,00,00,16.60
2014,08,07,00,01,16.60
2014,08,07,00,02,16.50
2014,08,07,00,03,16.50
2014,08,07,00,04,16.50
2014,08,07,00,05,16.40
2014,08,07,00,06,16.40
2014,08,07,00,07,16.40
2014,08,07,00,08,16.40
2014,08,07,00,09,16.40
2014,08,07,00,10,16.40
2014,08,07,00,11,16.30
2014,08,07,00,12,16.30
2014,08,07,00,13,16.30
2014,08,07,00,14,16.30
2014,08,07,00,15,16.30
2014,08,07,00,16,16.30
2014,08,07,00,17,16.30
2014,08,07,00,18,16.30
2014,08,07,00,19,16.20
2014,08,07,00,20,16.20
2014,08,07,00,21,16.20
2014,08,07,00,22,16.20
2014,08,07,00,23,16.20
2014,08,07,00,24,16.20
2014,08,07,00,25,16.20
2014,08,07,00,26,16.20
2014,08,07,00,27,16.20
2014,08,07,00,28,16.20
2014,08,07,00,29,16.20
2014,08,07,00,30,16.20
2014,08,07,00,31,16.20
2014,08,07,00,32,16.10
2014,08,07,00,33,16.10
2014,08,07,00,34,16.10
2014,08,07,00,35,16.10
2014,08,07,00,36,16.10
2014,08,07,00,37,16.10
2014,08,07,00,38,16.10
2014,08,07,00,39,16.10
2014,08,07,00,40,16.10
2014,08,07,00,41,16.00
2014,08,07,00,42,16.00
2014,08,07,00,43,16.00
2014,08,07,00,44,16.00
2014,08,07,00,45,16.00
2014,08,07,00,46,15.90
2014,08,07,00,47,15.90
2014,08,07,00,48,15.90
2014,08,07,00,49,15.90
2014,08,07,00,50,15.90
2014,08,07,00,51,15.90
2014,08,07,00,52,15.80
2014,08,07,00,53,15.80
2014,08,07,00,54,15.80
2014,08,07,00,55,15.80
2014,08,07,00,56,15.80
2014,08,07,00,57,15.80
2014,08,07,00,58,15.80
2014,08,07,00,59,15.70
2014,08,07,01,00,15.70
2014,08,07,01,01,15.70
2014,08,07,01,02,15.70
2014,08,07,01,03,15.60
2014,08,07,01,04,15.60
2014,08,07,01,05,15.60
2014,08,07,01,06,15.60
2014,08,07,01,07,15.60
2014,08,07,01,08,15.50
2014,08,07,01,09,15.50
2014,08,07,01,10,15.50
2014,08,07,01,11,15.50
2014,08,07,01,12,15.40
2014,08,07,01,13,15.40
2014,08,07,01,14,15.30
2014,08,07,01,15,15.30
2014,08,07,01,16,15.30
2014,08,07,01,17,15.30
2014,08,07,01,18,15.20
2014,08,07,01,19,15.20
2014,08,07,01,20,15.20
2014,08,07,01,21,15.20
2014,08,07,01,22,15.20
2014,08,07,01,23,15.20
2014,08,07,01,24,15.10
2014,08,07,01,25,15.10
2014,08,07,01,26,15.10
2014,08,07,01,27,15.10
2014,08,07,01,28,15.10
2014,08,07,01,29,15.00
2014,08,07,01,30,15.00
2014,08,07,01,31,15.00
2014,08,07,01,32,15.00
2014,08,07,01,33,14.90
2014,08,07,01,34,14.90
2014,08,07,01,35,14.90
2014,08,07,01,36,14.90
2014,08,07,01,37,14.90
2014,08,07,01,38,14.90
2014,08,07,01,39,14.80
2014,08,07,01,40,14.80
2014,08,07,01,41,14.80
2014,08,07,01,42,14.80
2014,08,07,01,43,14.80
2014,08,07,01,44,14.80
2014,08,07,01,45,14.80
2014,08,07,01,46,14.80
2014,08,07,01,47,14.80
2014,08,07,01,48,14.80
2014,08,07,01,49,14.80
2014,08,07,01,50,14.80
2014,08,07,01,51,14.80
2014,08,07,01,52,14.80
2014,08,07,01,53,14.80
2014,08,07,01,54,14.80
2014,08,07,01,55,14.80
2014,08,07,01,56,14.80
2014,08,07,01,57,14.80
2014,08,07,01,58,14.80
2014,08,07,01,59,14.80
2014,08,07,02,00,14.80
2014,08,07,02,01,14.70
2014,08,07,02,02,14.70
2014,08,07,02,03,14.70
2014,08,07,02,04,14.70
2014,08,07,02,05,14.70
2014,08,07,02,06,14.60
2014,08,07,02,07,14.60
2014,08,07,02,08,14.60
2014,08,07,02,09,14.60
2014,08,07,02,10,14.60
2014,08,07,02,11,14.60
2014,08,07,02,12,14.50
2014,08,07,02,13,14.50
2014,08,07,02,14,14.50
2014,08,07,02,15,14.40
2014,08,07,02,16,14.40
2014,08,07,02,17,14.40
2014,08,07,02,18,14.40
2014,08,07,02,19,14.40
2014,08,07,02,20,14.40
2014,08,07,02,21,14.30
2014,08,07,02,22,14.30
2014,08,07,02,23,14.30
2014,08,07,02,24,14.30
2014,08,07,02,25,14.30
2014,08,07,02,26,14.30
2014,08,07,02,27,14.30
2014,08,07,02,28,14.20
2014,08,07,02,29,14.20
2014,08,07,02,30,14.20
2014,08,07,02,31,14.20
2014,08,07,02,32,14.20
2014,08,07,02,33,14.20
2014,08,07,02,34,14.20
2014,08,07,02,35,14.20
2014,08,07,02,36,14.20
2014,08,07,02,37,14.20
2014,08,07,02,38,14.10
2014,08,07,02,39,14.10
2014,08,07,02,40,14.10
2014,08,07,02,41,14.10
2014,08,07,02,42,14.10
2014,08,07,02,43,14.10
2014,08,07,02,44,14.10
2014,08,07,02,45,14.10
2014,08,07,02,46,14.10
2014,08,07,02,47,14.10
2014,08,07,02,48,14.00
2014,08,07,02,49,14.00
2014,08,07,02,50,13.90
2014,08,07,02,51,13.90
2014,08,07,02,52,13.90
2014,08,07,02,53,13.80
2014,08,07,02,54,13.80
2014,08,07,02,55,13.80
2014,08,07,02,56,13.80
2014,08,07,02,57,13.80
2014,08,07,02,58,13.70
2014,08,07,02,59,13.70
2014,08,07,03,00,13.70
2014,08,07,03,01,13.70
2014,08,07,03,02,13.70
2014,08,07,03,03,13.70
2014,08,07,03,04,13.70
2014,08,07,03,05,13.70
2014,08,07,03,06,13.60
2014,08,07,03,07,13.60
2014,08,07,03,08,13.60
2014,08,07,03,09,13.60
2014,08,07,03,10,13.60
2014,08,07,03,11,13.60
2014,08,07,03,12,13.60
2014,08,07,03,13,13.60
2014,08,07,03,14,13.60
2014,08,07,03,15,13.60
2014,08,07,03,16,13.60
2014,08,07,03,17,13.60
2014,08,07,03,18,13.60
2014,08,07,03,19,13.60
2014,08,07,03,20,13.60
2014,08,07,03,21,13.60
2014,08,07,03,22,13.60
2014,08,07,03,23,13.60
2014,08,07,03,24,13.60
2014,08,07,03,25,13.60
2014,08,07,03,26,13.60
2014,08,07,03,27,13.60
2014,08,07,03,28,13.60
2014,08,07,03,29,13.60
2014,08,07,03,30,13.60
2014,08,07,03,31,13.60
2014,08,07,03,32,13.60
2014,08,07,03,33,13.60
2014,08,07,03,34,13.60
2014,08,07,03,35,13.50
2014,08,07,03,36,13.50
2014,08,07,03,37,13.50
2014,08,07,03,38,13.50
2014,08,07,03,39,13.50
2014,08,07,03,40,13.40
2014,08,07,03,41,13.40
2014,08,07,03,42,13.40
2014,08,07,03,43,13.40
2014,08,07,03,44,13.40
2014,08,07,03,45,13.40
2014,08,07,03,46,13.30
2014,08,07,03,47,13.30
2014,08,07,03,48,13.30
2014,08,07,03,49,13.30
2014,08,07,03,50,13.30
2014,08,07,03,51,13.30
2014,08,07,03,52,13.20
2014,08,07,03,53,13.20
2014,08,07,03,54,13.20
2014,08,07,03,55,13.20
2014,08,07,03,56,13.20
2014,08,07,03,57,13.20
2014,08,07,03,58,13.10
2014,08,07,03,59,13.10
2014,08,07,04,00,13.10
2014,08,07,04,01,13.10
2014,08,07,04,02,13.10
2014,08,07,04,03,13.00
2014,08,07,04,04,13.00
2014,08,07,04,05,13.00
2014,08,07,04,06,13.00
2014,08,07,04,07,13.00
2014,08,07,04,08,13.00
2014,08,07,04,09,13.00
2014,08,07,04,10,13.00
2014,08,07,04,11,12.90
2014,08,07,04,12,12.90
2014,08,07,04,13,12.90
2014,08,07,04,14,12.90
2014,08,07,04,15,12.90
2014,08,07,04,16,12.90
2014,08,07,04,17,12.80
2014,08,07,04,18,12.80
2014,08,07,04,19,12.80
2014,08,07,04,20,12.80
2014,08,07,04,21,12.80
2014,08,07,04,22,12.80
2014,08,07,04,23,12.80
2014,08,07,04,24,12.80
2014,08,07,04,25,12.80
2014,08,07,04,26,12.70
2014,08,07,04,27,12.70
2014,08,07,04,28,12.70
2014,08,07,04,29,12.70
2014,08,07,04,30,12.70
2014,08,07,04,31,12.70
2014,08,07,04,32,12.70
2014,08,07,04,33,12.70
2014,08,07,04,34,12.70
2014,08,07,04,35,12.70
2014,08,07,04,36,12.70
2014,08,07,04,37,12.70
2014,08,07,04,38,12.70
2014,08,07,04,39,12.70
2014,08,07,04,40,12.70
2014,08,07,04,41,12.70
2014,08,07,04,42,12.70
2014,08,07,04,43,12.70
2014,08,07,04,44,12.70
2014,08,07,04,45,12.70
2014,08,07,04,46,12.70
2014,08,07,04,47,12.70
2014,08,07,04,48,12.70
2014,08,07,04,49,12.60
2014,08,07,04,50,12.60
2014,08,07,04,51,12.60
2014,08,07,04,52,12.60
2014,08,07,04,53,12.60
2014,08,07,04,54,12.60
2014,08,07,04,55,12.60
2014,08,07,04,56,12.50
2014,08,07,04,57,12.50
2014,08,07,04,58,12.50
2014,08,07,04,59,12.50
2014,08,07,05,00,12.50
2014,08,07,05,01,12.40
2014,08,07,05,02,12.40
2014,08,07,05,03,12.40
2014,08,07,05,04,12.40
2014,08,07,05,05,12.40
2014,08,07,05,06,12.40
2014,08,07,05,07,12.40
2014,08,07,05,08,12.40
2014,08,07,05,09,12.40
2014,08,07,05,10,12.40
2014,08,07,05,11,12.40
2014,08,07,05,12,12.40
2014,08,07,05,13,12.40
2014,08,07,05,14,12.30
2014,08,07,05,15,12.30
2014,08,07,05,16,12.30
2014,08,07,05,17,12.30
2014,08,07,05,18,12.30
2014,08,07,05,19,12.30
2014,08,07,05,20,12.30
2014,08,07,05,21,12.30
2014,08,07,05,22,12.30
2014,08,07,05,23,12.30
2014,08,07,05,24,12.30
2014,08,07,05,25,12.30
2014,08,07,05,26,12.30
2014,08,07,05,27,12.30
2014,08,07,05,28,12.30
2014,08,07,05,29,12.20
2014,08,07,05,30,12.20
2014,08,07,05,31,12.20
2014,08,07,05,32,12.20
2014,08,07,05,33,12.20
2014,08,07,05,34,12.20
2014,08,07,05,35,12.10
2014,08,07,05,36,12.10
2014,08,07,05,37,12.10
2014,08,07,05,38,12.10
2014,08,07,05,39,12.10
2014,08,07,05,40,12.10
2014,08,07,05,41,12.10
2014,08,07,05,42,12.10
2014,08,07,05,43,12.00
2014,08,07,05,44,12.00
2014,08,07,05,45,12.00
2014,08,07,05,46,12.00
2014,08,07,05,47,12.00
2014,08,07,05,48,12.00
2014,08,07,05,49,11.90
2014,08,07,05,50,11.90
2014,08,07,05,51,11.90
2014,08,07,05,52,11.90
2014,08,07,05,53,11.90
2014,08,07,05,54,11.90
2014,08,07,05,55,11.90
2014,08,07,05,56,11.90
2014,08,07,05,57,11.90
2014,08,07,05,58,11.80
2014,08,07,05,59,11.80
2014,08,07,06,00,11.80
2014,08,07,06,01,11.80
2014,08,07,06,02,11.80
2014,08,07,06,03,11.80
2014,08,07,06,04,11.80
2014,08,07,06,05,11.80
2014,08,07,06,06,11.80
2014,08,07,06,07,11.80
2014,08,07,06,08,11.80
2014,08,07,06,09,11.80
2014,08,07,06,10,11.80
2014,08,07,06,11,11.80
2014,08,07,06,12,11.80
2014,08,07,06,13,11.80
2014,08,07,06,14,11.80
2014,08,07,06,15,11.80
2014,08,07,06,16,11.80
2014,08,07,06,17,11.70
2014,08,07,06,18,11.70
2014,08,07,06,19,11.70
2014,08,07,06,20,11.70
2014,08,07,06,21,11.70
2014,08,07,06,22,11.70
2014,08,07,06,23,11.70
2014,08,07,06,24,11.70
2014,08,07,06,25,11.70
2014,08,07,06,26,11.70
2014,08,07,06,27,11.70
2014,08,07,06,28,11.70
2014,08,07,06,29,11.70
2014,08,07,06,30,11.70
2014,08,07,06,31,11.70
2014,08,07,06,32,11.70
2014,08,07,06,33,11.70
2014,08,07,06,34,11.70
2014,08,07,06,35,11.70
2014,08,07,06,36,11.70
2014,08,07,06,37,11.70
2014,08,07,06,38,11.70
2014,08,07,06,39,11.70
2014,08,07,06,40,11.80
2014,08,07,06,41,11.80
2014,08,07,06,42,11.80
2014,08,07,06,43,11.80
2014,08,07,06,44,11.80
2014,08,07,06,45,11.80
2014,08,07,06,46,11.80
2014,08,07,06,47,11.90
2014,08,07,06,48,11.90
2014,08,07,06,49,11.90
2014,08,07,06,50,11.90
2014,08,07,06,51,11.90
2014,08,07,06,52,12.00
2014,08,07,06,53,12.00
2014,08,07,06,54,12.00
2014,08,07,06,55,12.10
2014,08,07,06,56,12.10
2014,08,07,06,57,12.10
2014,08,07,06,58,12.10
2014,08,07,06,59,12.10
2014,08,07,07,00,12.10
2014,08,07,07,01,12.20
2014,08,07,07,02,12.20
2014,08,07,07,03,12.20
2014,08,07,07,04,12.20
2014,08,07,07,05,12.20
2014,08,07,07,06,12.30
2014,08,07,07,07,12.30
2014,08,07,07,08,12.30
2014,08,07,07,09,12.40
2014,08,07,07,10,12.40
2014,08,07,07,11,12.50
2014,08,07,07,12,12.50
2014,08,07,07,13,12.60
2014,08,07,07,14,12.70
2014,08,07,07,15,12.70
2014,08,07,07,16,12.80
2014,08,07,07,17,12.80
2014,08,07,07,18,12.90
2014,08,07,07,19,12.90
2014,08,07,07,20,13.00
2014,08,07,07,21,13.10
2014,08,07,07,22,13.10
2014,08,07,07,23,13.10
2014,08,07,07,24,13.20
2014,08,07,07,25,13.20
2014,08,07,07,26,13.20
2014,08,07,07,27,13.30
2014,08,07,07,28,13.30
2014,08,07,07,29,13.40
2014,08,07,07,30,13.40
2014,08,07,07,31,13.50
2014,08,07,07,32,13.60
2014,08,07,07,33,13.60
2014,08,07,07,34,13.70
2014,08,07,07,35,13.80
2014,08,07,07,36,13.80
2014,08,07,07,37,13.90
2014,08,07,07,38,14.00
2014,08,07,07,39,14.10
2014,08,07,07,40,14.10
2014,08,07,07,41,14.20
2014,08,07,07,42,14.20
2014,08,07,07,43,14.30
2014,08,07,07,44,14.30
2014,08,07,07,45,14.30
2014,08,07,07,46,14.30
2014,08,07,07,47,14.30
2014,08,07,07,48,14.40
2014,08,07,07,49,14.40
2014,08,07,07,50,14.40
2014,08,07,07,51,14.40
2014,08,07,07,52,14.50
2014,08,07,07,53,14.50
2014,08,07,07,54,14.50
2014,08,07,07,55,14.50
2014,08,07,07,56,14.60
2014,08,07,07,57,14.60
2014,08,07,07,58,14.60
2014,08,07,07,59,14.60
2014,08,07,08,00,14.70
2014,08,07,08,01,14.70
2014,08,07,08,02,14.80
2014,08,07,08,03,14.90
2014,08,07,08,04,14.90
2014,08,07,08,05,15.00
2014,08,07,08,06,15.00
2014,08,07,08,07,15.10
2014,08,07,08,08,15.10
2014,08,07,08,09,15.20
2014,08,07,08,10,15.20
2014,08,07,08,11,15.20
2014,08,07,08,12,15.10
2014,08,07,08,13,15.10
2014,08,07,08,14,15.10
2014,08,07,08,15,15.10
2014,08,07,08,16,15.10
2014,08,07,08,17,15.10
2014,08,07,08,18,15.10
2014,08,07,08,19,15.10
2014,08,07,08,20,15.20
2014,08,07,08,21,15.10
2014,08,07,08,22,15.10
2014,08,07,08,23,15.10
2014,08,07,08,24,15.00
2014,08,07,08,25,15.00
2014,08,07,08,26,14.90
2014,08,07,08,27,14.90
2014,08,07,08,28,14.90
2014,08,07,08,29,14.90
2014,08,07,08,30,14.90
2014,08,07,08,31,14.90
2014,08,07,08,32,14.90
2014,08,07,08,33,14.90
2014,08,07,08,34,14.90
2014,08,07,08,35,15.00
2014,08,07,08,36,15.00
2014,08,07,08,37,15.00
2014,08,07,08,38,15.10
2014,08,07,08,39,15.10
2014,08,07,08,40,15.10
2014,08,07,08,41,15.10
2014,08,07,08,42,15.20
2014,08,07,08,43,15.20
2014,08,07,08,44,15.30
2014,08,07,08,45,15.30
2014,08,07,08,46,15.30
2014,08,07,08,47,15.30
2014,08,07,08,48,15.30
2014,08,07,08,49,15.30
2014,08,07,08,50,15.30
2014,08,07,08,51,15.30
2014,08,07,08,52,15.30
2014,08,07,08,53,15.40
2014,08,07,08,54,15.40
2014,08,07,08,55,15.40
2014,08,07,08,56,15.40
2014,08,07,08,57,15.40
2014,08,07,08,58,15.50
2014,08,07,08,59,15.50
2014,08,07,09,00,15.50
2014,08,07,09,01,15.50
2014,08,07,09,02,15.50
2014,08,07,09,03,15.50
2014,08,07,09,04,15.60
2014,08,07,09,05,15.60
2014,08,07,09,06,15.70
2014,08,07,09,07,15.70
2014,08,07,09,08,15.70
2014,08,07,09,09,15.70
2014,08,07,09,10,15.70
2014,08,07,09,11,15.90
2014,08,07,09,12,16.00
2014,08,07,09,13,16.10
2014,08,07,09,14,16.20
2014,08,07,09,15,16.30
2014,08,07,09,16,16.40
2014,08,07,09,17,16.50
2014,08,07,09,18,16.50
2014,08,07,09,19,16.60
2014,08,07,09,20,16.70
2014,08,07,09,21,16.80
2014,08,07,09,22,16.80
2014,08,07,09,23,16.90
2014,08,07,09,24,16.90
2014,08,07,09,25,16.90
2014,08,07,09,26,16.90
2014,08,07,09,27,17.00
2014,08,07,09,28,17.00
2014,08,07,09,29,17.00
2014,08,07,09,30,17.00
2014,08,07,09,31,17.00
2014,08,07,09,32,17.00
2014,08,07,09,33,17.00
2014,08,07,09,34,17.00
2014,08,07,09,35,17.00
2014,08,07,09,36,17.10
2014,08,07,09,37,17.20
2014,08,07,09,38,17.30
2014,08,07,09,39,17.30
2014,08,07,09,40,17.30
2014,08,07,09,41,17.30
2014,08,07,09,42,17.30
2014,08,07,09,43,17.30
2014,08,07,09,44,17.30
2014,08,07,09,45,17.30
2014,08,07,09,46,17.40
2014,08,07,09,47,17.40
2014,08,07,09,48,17.40
2014,08,07,09,49,17.40
2014,08,07,09,50,17.40
2014,08,07,09,51,17.40
2014,08,07,09,52,17.50
2014,08,07,09,53,17.60
2014,08,07,09,54,17.60
2014,08,07,09,55,17.60
2014,08,07,09,56,17.60
2014,08,07,09,57,17.60
2014,08,07,09,58,17.70
2014,08,07,09,59,17.70
2014,08,07,10,00,17.70
2014,08,07,10,01,17.80
2014,08,07,10,02,17.90
2014,08,07,10,03,17.90
2014,08,07,10,04,17.90
2014,08,07,10,05,17.90
2014,08,07,10,06,18.00
2014,08,07,10,07,18.00
2014,08,07,10,08,18.00
2014,08,07,10,09,18.00
2014,08,07,10,10,18.10
2014,08,07,10,11,18.10
2014,08,07,10,12,18.20
2014,08,07,10,13,18.20
2014,08,07,10,14,18.20
2014,08,07,10,15,18.20
2014,08,07,10,16,18.20
2014,08,07,10,17,18.20
2014,08,07,10,18,18.20
2014,08,07,10,19,18.20
2014,08,07,10,20,18.20
2014,08,07,10,21,18.30
2014,08,07,10,22,18.30
2014,08,07,10,23,18.30
2014,08,07,10,24,18.30
2014,08,07,10,25,18.40
2014,08,07,10,26,18.40
2014,08,07,10,27,18.50
2014,08,07,10,28,18.50
2014,08,07,10,29,18.60
2014,08,07,10,30,18.60
2014,08,07,10,31,18.60
2014,08,07,10,32,18.60
2014,08,07,10,33,18.70
2014,08,07,10,34,18.70
2014,08,07,10,35,18.80
2014,08,07,10,36,18.90
2014,08,07,10,37,19.00
2014,08,07,10,38,19.10
2014,08,07,10,39,19.10
2014,08,07,10,40,19.20
2014,08,07,10,41,19.20
2014,08,07,10,42,19.20
2014,08,07,10,43,19.20
2014,08,07,10,44,19.20
2014,08,07,10,45,19.20
2014,08,07,10,46,19.20
2014,08,07,10,47,19.20
2014,08,07,10,48,19.20
2014,08,07,10,49,19.20
2014,08,07,10,50,19.20
2014,08,07,10,51,19.30
2014,08,07,10,52,19.30
2014,08,07,10,53,19.30
2014,08,07,10,54,19.40
2014,08,07,10,55,19.40
2014,08,07,10,56,19.50
2014,08,07,10,57,19.60
2014,08,07,10,58,19.60
2014,08,07,10,59,19.60
2014,08,07,11,00,19.60
2014,08,07,11,01,19.70
2014,08,07,11,02,19.80
2014,08,07,11,03,19.90
2014,08,07,11,04,19.90
2014,08,07,11,05,19.90
2014,08,07,11,06,19.90
2014,08,07,11,07,20.00
2014,08,07,11,08,20.00
2014,08,07,11,09,20.00
2014,08,07,11,10,20.00
2014,08,07,11,11,20.00
2014,08,07,11,12,20.00
2014,08,07,11,13,20.10
2014,08,07,11,14,20.10
2014,08,07,11,15,20.20
2014,08,07,11,16,20.20
2014,08,07,11,17,20.20
2014,08,07,11,18,20.30
2014,08,07,11,19,20.40
2014,08,07,11,20,20.40
2014,08,07,11,21,20.50
2014,08,07,11,22,20.60
2014,08,07,11,23,20.70
2014,08,07,11,24,20.70
2014,08,07,11,25,20.80
2014,08,07,11,26,20.80
2014,08,07,11,27,20.80
2014,08,07,11,28,20.80
2014,08,07,11,29,20.80
2014,08,07,11,30,20.90
2014,08,07,11,31,21.00
2014,08,07,11,32,21.00
2014,08,07,11,33,21.10
2014,08,07,11,34,21.10
2014,08,07,11,35,21.10
2014,08,07,11,36,21.20
2014,08,07,11,37,21.20
2014,08,07,11,38,21.30
2014,08,07,11,39,21.30
2014,08,07,11,40,21.40
2014,08,07,11,41,21.40
2014,08,07,11,42,21.40
2014,08,07,11,43,21.50
2014,08,07,11,44,21.50
2014,08,07,11,45,21.60
2014,08,07,11,46,21.60
2014,08,07,11,47,21.60
2014,08,07,11,48,21.70
2014,08,07,11,49,21.70
2014,08,07,11,50,21.80
2014,08,07,11,51,21.80
2014,08,07,11,52,21.90
2014,08,07,11,53,22.00
2014,08,07,11,54,22.10
2014,08,07,11,55,22.20
2014,08,07,11,56,22.20
2014,08,07,11,57,22.10
2014,08,07,11,58,22.10
2014,08,07,11,59,22.20
2014,08,07,12,00,22.20
2014,08,07,12,01,22.40
2014,08,07,12,02,22.40
2014,08,07,12,03,22.50
2014,08,07,12,04,22.50
2014,08,07,12,05,22.50
2014,08,07,12,06,22.40
2014,08,07,12,07,22.40
2014,08,07,12,08,22.30
2014,08,07,12,09,22.30
2014,08,07,12,10,22.20
2014,08,07,12,11,22.30
2014,08,07,12,12,22.30
2014,08,07,12,13,22.30
2014,08,07,12,14,22.30
2014,08,07,12,15,22.40
2014,08,07,12,16,22.50
2014,08,07,12,17,22.60
2014,08,07,12,18,22.70
2014,08,07,12,19,22.80
2014,08,07,12,20,22.80
2014,08,07,12,21,22.80
2014,08,07,12,22,22.80
2014,08,07,12,23,22.80
2014,08,07,12,24,22.80
2014,08,07,12,25,22.90
2014,08,07,12,26,23.00
2014,08,07,12,27,23.10
2014,08,07,12,28,23.10
2014,08,07,12,29,23.20
2014,08,07,12,30,23.20
2014,08,07,12,31,23.30
2014,08,07,12,32,23.40
2014,08,07,12,33,23.60
2014,08,07,12,34,23.70
2014,08,07,12,35,23.80
2014,08,07,12,36,23.80
2014,08,07,12,37,23.80
2014,08,07,12,38,23.80
2014,08,07,12,39,23.80
2014,08,07,12,40,23.80
2014,08,07,12,41,23.90
2014,08,07,12,42,23.90
2014,08,07,12,43,24.00
2014,08,07,12,44,24.00
2014,08,07,12,45,24.10
2014,08,07,12,46,24.10
2014,08,07,12,47,24.20
2014,08,07,12,48,24.20
2014,08,07,12,49,24.30
2014,08,07,12,50,24.40
2014,08,07,12,51,24.50
2014,08,07,12,52,24.50
2014,08,07,12,53,24.50
2014,08,07,12,54,24.50
2014,08,07,12,55,24.60
2014,08,07,12,56,24.60
2014,08,07,12,57,24.70
2014,08,07,12,58,24.80
2014,08,07,12,59,24.90
2014,08,07,13,00,24.90
2014,08,07,13,01,25.00
2014,08,07,13,02,25.00
2014,08,07,13,03,25.00
2014,08,07,13,04,25.00
2014,08,07,13,05,25.10
2014,08,07,13,06,25.00
2014,08,07,13,07,25.00
2014,08,07,13,08,25.00
2014,08,07,13,09,25.00
2014,08,07,13,10,25.00
2014,08,07,13,11,24.90
2014,08,07,13,12,24.90
2014,08,07,13,13,24.80
2014,08,07,13,14,24.70
2014,08,07,13,15,24.70
2014,08,07,13,16,24.60
2014,08,07,13,17,24.60
2014,08,07,13,18,24.60
2014,08,07,13,19,24.60
2014,08,07,13,20,24.70
2014,08,07,13,21,24.80
2014,08,07,13,22,24.90
2014,08,07,13,23,25.00
2014,08,07,13,24,25.00
2014,08,07,13,25,25.10
2014,08,07,13,26,25.10
2014,08,07,13,27,25.10
2014,08,07,13,28,25.20
2014,08,07,13,29,25.30
2014,08,07,13,30,25.20
2014,08,07,13,31,25.20
2014,08,07,13,32,25.10
2014,08,07,13,33,25.00
2014,08,07,13,34,25.00
2014,08,07,13,35,24.90
2014,08,07,13,36,24.90
2014,08,07,13,37,24.80
2014,08,07,13,38,24.80
2014,08,07,13,39,24.80
2014,08,07,13,40,24.80
2014,08,07,13,41,24.80
2014,08,07,13,42,24.80
2014,08,07,13,43,24.70
2014,08,07,13,44,24.80
2014,08,07,13,45,24.80
2014,08,07,13,46,24.80
2014,08,07,13,47,24.80
2014,08,07,13,48,24.80
2014,08,07,13,49,24.90
2014,08,07,13,50,24.90
2014,08,07,13,51,24.90
2014,08,07,13,52,25.00
2014,08,07,13,53,25.10
2014,08,07,13,54,25.10
2014,08,07,13,55,25.10
2014,08,07,13,56,25.00
2014,08,07,13,57,25.00
2014,08,07,13,58,25.10
2014,08,07,13,59,25.10
2014,08,07,14,00,25.10
2014,08,07,14,01,25.20
2014,08,07,14,02,25.20
2014,08,07,14,03,25.10
2014,08,07,14,04,25.10
2014,08,07,14,05,25.00
2014,08,07,14,06,25.00
2014,08,07,14,07,24.80
2014,08,07,14,08,24.70
2014,08,07,14,09,24.70
2014,08,07,14,10,24.70
2014,08,07,14,11,24.70
2014,08,07,14,12,24.70
2014,08,07,14,13,24.70
2014,08,07,14,14,24.80
2014,08,07,14,15,24.80
2014,08,07,14,16,24.80
2014,08,07,14,17,24.70
2014,08,07,14,18,24.70
2014,08,07,14,19,24.60
2014,08,07,14,20,24.60
2014,08,07,14,21,24.60
2014,08,07,14,22,24.70
2014,08,07,14,23,24.70
2014,08,07,14,24,24.70
2014,08,07,14,25,24.60
2014,08,07,14,26,24.60
2014,08,07,14,27,24.50
2014,08,07,14,28,24.60
2014,08,07,14,29,24.60
2014,08,07,14,30,24.60
2014,08,07,14,31,24.60
2014,08,07,14,32,24.60
2014,08,07,14,33,24.60
2014,08,07,14,34,24.70
2014,08,07,14,35,24.70
2014,08,07,14,36,24.50
2014,08,07,14,37,24.40
2014,08,07,14,38,24.40
2014,08,07,14,39,24.40
2014,08,07,14,40,24.40
2014,08,07,14,41,24.40
2014,08,07,14,42,24.40
2014,08,07,14,43,24.40
2014,08,07,14,44,24.40
2014,08,07,14,45,24.50
2014,08,07,14,46,24.50
2014,08,07,14,47,24.60
2014,08,07,14,48,24.70
2014,08,07,14,49,24.80
2014,08,07,14,50,24.80
2014,08,07,14,51,24.90
2014,08,07,14,52,25.10
2014,08,07,14,53,25.10
2014,08,07,14,54,25.10
2014,08,07,14,55,25.10
2014,08,07,14,56,25.10
2014,08,07,14,57,25.20
2014,08,07,14,58,25.20
2014,08,07,14,59,25.30
2014,08,07,15,00,25.30
2014,08,07,15,01,25.40
2014,08,07,15,02,25.50
2014,08,07,15,03,25.60
2014,08,07,15,04,25.70
2014,08,07,15,05,25.70
2014,08,07,15,06,25.70
2014,08,07,15,07,25.70
2014,08,07,15,08,25.60
2014,08,07,15,09,25.60
2014,08,07,15,10,25.60
2014,08,07,15,11,25.50
2014,08,07,15,12,25.40
2014,08,07,15,13,25.40
2014,08,07,15,14,25.40
2014,08,07,15,15,25.40
2014,08,07,15,16,25.40
2014,08,07,15,17,25.40
2014,08,07,15,18,25.30
2014,08,07,15,19,25.30
2014,08,07,15,20,25.20
2014,08,07,15,21,25.20
2014,08,07,15,22,25.20
2014,08,07,15,23,25.10
2014,08,07,15,24,25.00
2014,08,07,15,25,24.90
2014,08,07,15,26,24.70
2014,08,07,15,27,24.60
2014,08,07,15,28,24.50
2014,08,07,15,29,24.50
2014,08,07,15,30,24.40
2014,08,07,15,31,24.30
2014,08,07,15,32,24.40
2014,08,07,15,33,24.40
2014,08,07,15,34,24.40
2014,08,07,15,35,24.50
2014,08,07,15,36,24.60
2014,08,07,15,37,24.60
2014,08,07,15,38,24.70
2014,08,07,15,39,24.80
2014,08,07,15,40,24.90
2014,08,07,15,41,25.00
2014,08,07,15,42,25.00
2014,08,07,15,43,25.10
2014,08,07,15,44,25.10
2014,08,07,15,45,25.10
2014,08,07,15,46,25.00
2014,08,07,15,47,25.10
2014,08,07,15,48,25.10
2014,08,07,15,49,25.20
2014,08,07,15,50,25.30
2014,08,07,15,51,25.30
2014,08,07,15,52,25.40
2014,08,07,15,53,25.50
2014,08,07,15,54,25.50
2014,08,07,15,55,25.50
2014,08,07,15,56,25.40
2014,08,07,15,57,25.40
2014,08,07,15,58,25.40
2014,08,07,15,59,25.30
2014,08,07,16,00,25.30
2014,08,07,16,01,25.20
2014,08,07,16,02,25.20
2014,08,07,16,03,25.10
2014,08,07,16,04,25.00
2014,08,07,16,05,24.80
2014,08,07,16,06,24.70
2014,08,07,16,07,24.70
2014,08,07,16,08,24.60
2014,08,07,16,09,24.60
2014,08,07,16,10,24.50
2014,08,07,16,11,24.50
2014,08,07,16,12,24.30
2014,08,07,16,13,24.30
2014,08,07,16,14,24.30
2014,08,07,16,15,24.30
2014,08,07,16,16,24.30
2014,08,07,16,17,24.20
2014,08,07,16,18,24.20
2014,08,07,16,19,24.20
2014,08,07,16,20,24.10
2014,08,07,16,21,24.00
2014,08,07,16,22,23.90
2014,08,07,16,23,24.00
2014,08,07,16,24,24.00
2014,08,07,16,25,24.10
2014,08,07,16,26,24.10
2014,08,07,16,27,24.20
2014,08,07,16,28,24.20
2014,08,07,16,29,24.20
2014,08,07,16,30,24.20
2014,08,07,16,31,24.20
2014,08,07,16,32,24.20
2014,08,07,16,33,24.20
2014,08,07,16,34,24.20
2014,08,07,16,35,24.20
2014,08,07,16,36,24.20
2014,08,07,16,37,24.30
2014,08,07,16,38,24.30
2014,08,07,16,39,24.40
2014,08,07,16,40,24.40
2014,08,07,16,41,24.40
2014,08,07,16,42,24.40
2014,08,07,16,43,24.50
2014,08,07,16,44,24.60
2014,08,07,16,45,24.60
2014,08,07,16,46,24.60
2014,08,07,16,47,24.60
2014,08,07,16,48,24.50
2014,08,07,16,49,24.50
2014,08,07,16,50,24.50
2014,08,07,16,51,24.50
2014,08,07,16,52,24.40
2014,08,07,16,53,24.40
2014,08,07,16,54,24.30
2014,08,07,16,55,24.30
2014,08,07,16,56,24.40
2014,08,07,16,57,24.40
2014,08,07,16,58,24.30
2014,08,07,16,59,24.20
2014,08,07,17,00,24.10
2014,08,07,17,01,24.10
2014,08,07,17,02,24.10
2014,08,07,17,03,24.10
2014,08,07,17,04,24.10
2014,08,07,17,05,24.20
2014,08,07,17,06,24.20
2014,08,07,17,07,24.10
2014,08,07,17,08,24.00
2014,08,07,17,09,24.00
2014,08,07,17,10,24.00
2014,08,07,17,11,23.90
2014,08,07,17,12,23.90
2014,08,07,17,13,24.00
2014,08,07,17,14,24.00
2014,08,07,17,15,24.10
2014,08,07,17,16,24.10
2014,08,07,17,17,24.10
2014,08,07,17,18,24.10
2014,08,07,17,19,24.10